[[{"header":{"parameterUnit":"m.s-1","parameterCategory":1,"la1":30.2991,"la2":30.254,"lo1":-89.0895,"lo2":-89.0444,"dy":0.0017,"dx":0.0017,"nx":28,"ny":28,"refTime":"2024-12-03T09:00:00:Z","depth":0,"parameterNumber":2,"parameterNumberName":"U-component_of_WINDS"},"data":[0,0,0,0,0,0,0,0,0,0,0,0,0,0,0,0,0,0,0,0,0,0,0,0,0,0,0,0,0,0,0,0,0,0,0,0,0,0,0,0,0,0,0,0,0,0,0,0,0,0,0,0,0,0,0,0,0,0,1.9894,1.9896,0,2.0065,2.0067,2.0069,2.0079,2.0078,2.0076,2.0074,2.0249,2.0256,2.0262,0,0,0,0,0,0,0,0,0,0,0,0,0,1.9577,1.9583,1.9894,1.9896,1.9898,2.0064,2.0067,2.0069,2.008,2.0077,2.0075,2.0073,2.0247,2.0255,2.0263,0,0,0,0,0,0,0,0,0,0,0,0,0,1.9728,1.9585,1.9893,1.9924,1.9928,2.0064,2.0067,2.007,2.008,2.0077,2.0074,2.0072,2.0245,2.0254,2.0264,2.0382,0,0,2.0293,2.0298,0,0,0,0,0,0,0,0,1.972,1.974,1.9917,1.9922,1.9927,2.0048,2.002,2.0174,2.0081,2.0022,2.0074,2.007,2.0185,2.0199,2.0238,2.039,2.0397,2.0294,2.03,2.0304,2.0307,0,0,0,0,0,0,0,1.9709,1.9732,1.9961,1.992,1.9926,1.9929,1.9947,2.0049,2.0118,2.0027,2.0029,2.0049,2.0187,2.0228,2.0242,2.04,2.0294,2.0303,2.0309,2.0312,2.0657,2.066,0,0,0,0,0,0,1.9693,1.9724,1.9956,1.9967,1.9814,1.9937,1.9957,2.0012,2.0117,2.013,2.0051,2.0048,2.0213,2.023,2.0248,2.0392,2.0304,2.0313,2.0319,2.0654,2.0658,2.0661,0,0,0,0,0,0,1.9686,1.9713,1.9949,1.9846,1.9876,1.9945,2.0007,2.0017,2.0058,2.0134,2.0147,2.008,2.0211,2.0234,2.0348,2.0398,2.0318,2.0327,2.065,2.0655,2.0659,2.0682,0,0,0,0,0,0,1.9677,1.9711,1.9756,1.9847,1.9881,2.0046,2.001,2.0022,2.0075,2.0073,2.0165,2.0178,2.0211,2.0333,2.0358,2.041,2.0334,2.0645,2.0652,2.0658,2.0677,2.0687,2.0696,0,0,0,0,0,1.9666,1.9756,1.9759,1.9787,1.994,2.0049,2.0069,2.0105,2.0079,2.0125,2.0174,2.0175,2.0389,2.0345,2.0372,2.0429,2.0642,2.065,2.0657,2.0673,2.0685,2.0696,0,0,0,0,0,0,1.967,1.9769,1.9772,1.9895,1.9964,2.0051,2.011,2.0117,2.0195,2.019,2.0232,2.0252,2.0365,2.0408,2.0357,2.0548,2.0513,2.0526,2.0515,2.0528,2.0537,2.0524,2.0342,0,0,0,0,0,1.9686,1.9767,1.9848,1.9948,1.9983,2.004,2.009,2.0111,2.0184,2.0213,2.0271,2.0342,2.0425,2.0479,2.056,2.0684,2.0704,2.0736,2.0745,2.0752,2.0763,2.0831,2.0847,2.0686,2.0686,2.0685,0,0,1.9718,1.9782,1.983,1.9951,2.0007,2.0089,2.0065,2.0154,2.0215,2.0227,2.0338,2.0382,2.0464,2.0583,2.0638,2.0623,2.0812,2.0762,2.0767,2.0774,2.0841,2.0856,2.0869,2.0691,2.069,2.0689,0,0,1.982,1.9876,1.9965,2.0022,2.0106,2.0144,2.0166,2.0252,2.0282,2.0394,2.0404,2.0478,2.0621,2.0679,2.0727,2.085,2.0853,2.0875,2.0924,2.0989,2.1002,2.1014,2.1057,2.1072,2.0885,2.0886,2.0886,0,1.9849,1.9974,2.0011,2.0099,2.0152,2.0166,2.0256,2.031,2.0416,2.0452,2.0433,2.0612,2.0668,2.0801,2.0831,2.0869,2.0895,2.0864,2.0997,2.1009,2.102,2.1062,2.1078,2.0888,2.0887,2.0887,2.0887,0,2.0006,2.0093,2.0155,2.0257,2.0317,2.0406,2.0456,2.0512,2.0528,2.0568,2.0681,2.0749,2.0844,2.0877,2.0894,2.1012,2.1,2.0989,2.0954,2.1037,2.1077,2.1093,2.089,2.089,2.0889,2.0889,0,0,2.0115,2.0236,2.0258,2.0305,2.0399,2.0467,2.0556,2.0649,2.0695,2.0769,2.0845,2.0965,2.0955,2.101,2.1034,2.1092,2.1184,2.1074,2.1076,2.1091,2.1317,2.1324,2.1342,2.1187,2.119,2.1193,2.131,0,2.0226,2.0386,2.0421,2.0559,2.0639,2.0653,2.0731,2.0798,2.0837,2.0911,2.0955,2.1039,2.1021,2.1053,2.1111,2.116,2.123,2.1152,2.1258,2.1261,2.1236,2.1363,2.1371,2.1478,2.1326,2.1328,2.133,0,2.0377,2.0453,2.0598,2.0682,2.0717,2.0786,2.0873,2.0944,2.1019,2.1044,2.1105,2.1123,2.1216,2.1177,2.1307,2.1254,2.1299,2.133,2.1335,2.1345,2.13,2.1376,2.1513,2.1529,2.1355,2.1353,2.1352,0,2.044,2.058,2.0685,2.0724,2.0824,2.0873,2.0917,2.0989,2.1042,2.1119,2.1153,2.124,2.1287,2.1353,2.1394,2.1362,2.152,2.1485,2.1543,2.1542,2.1575,2.1572,2.172,2.1605,2.1605,2.1605,2.1605,0,2.056,2.0648,2.0714,2.0779,2.0878,2.0918,2.1015,2.1059,2.1124,2.1197,2.1215,2.1283,2.1333,2.1408,2.1441,2.1543,2.1564,2.1586,2.1594,2.1585,2.1581,2.1614,2.1608,2.1609,2.1608,2.1607,2.1607,0,2.0648,2.0696,2.0811,2.0896,2.092,2.0989,2.1062,2.1125,2.1165,2.1257,2.1281,2.1344,2.1434,2.1481,2.1593,2.1615,2.1729,2.1732,2.1703,2.1706,2.1761,2.1755,2.1935,2.1961,2.1829,2.183,2.1831,0,2.0721,2.0789,2.0882,2.0932,2.0977,2.1057,2.1112,2.1154,2.1209,2.13,2.1352,2.1443,2.1517,2.1659,2.1715,2.1801,2.1806,2.1863,2.1819,2.1807,2.1806,2.1801,2.1808,2.1871,2.1872,2.1873,2.1874,0,2.0845,2.0865,2.0942,2.1028,2.1092,2.1162,2.123,2.127,2.1324,2.1385,2.1477,2.1534,2.1648,2.1738,2.1828,2.1873,2.1882,2.1887,2.1905,2.1896,2.1876,2.1887,2.1724,2.1883,2.1882,2.1881,2.1881,2.188,2.0927,2.0988,2.1063,2.1148,2.1204,2.1268,2.1331,2.1379,2.1456,2.1552,2.1572,2.1669,2.1742,2.1864,2.1912,2.1988,2.1976,2.2002,2.2009,2.2015,2.2017,2.1864,2.2005,2.2004,2.2004,2.2004,2.2004,0,2.1051,2.11,2.1178,2.1273,2.1341,2.1344,2.142,2.1476,2.156,2.1628,2.1701,2.1806,2.1893,2.1955,2.2043,2.2092,2.2099,2.2114,2.2111,2.2121,2.2022,2.1998,2.2107,2.2107,2.2107,2.2107,2.2107,2.2107,2.1124,2.1227,2.1256,2.1387,2.1435,2.153,2.1573,2.1632,2.1686,2.1803,2.1875,2.1915,2.1981,2.2074,2.2153,2.217,2.2201,2.2216,2.2232,2.2139,2.2128,2.2117,2.2094,2.2222,2.2223,2.2324,2.2325,2.2326]},{"header":{"parameterUnit":"m.s-1","parameterCategory":1,"la1":30.2991,"la2":30.254,"lo1":-89.0895,"lo2":-89.0444,"dy":0.0017,"dx":0.0017,"nx":28,"ny":28,"refTime":"2024-12-03T09:00:00:Z","depth":0,"parameterNumber":3,"parameterNumberName":"V-component_of_WINDS"},"data":[0,0,0,0,0,0,0,0,0,0,0,0,0,0,0,0,0,0,0,0,0,0,0,0,0,0,0,0,0,0,0,0,0,0,0,0,0,0,0,0,0,0,0,0,0,0,0,0,0,0,0,0,0,0,0,0,0,0,4.1174,4.1175,0,4.133,4.1332,4.1334,4.13,4.1297,4.1294,4.1291,4.1448,4.1454,4.1461,0,0,0,0,0,0,0,0,0,0,0,0,0,4.0842,4.0849,4.1173,4.1175,4.1177,4.133,4.1332,4.1334,4.13,4.1297,4.1293,4.129,4.1446,4.1454,4.1462,0,0,0,0,0,0,0,0,0,0,0,0,0,4.0991,4.0851,4.1173,4.1179,4.1181,4.1329,4.1332,4.1335,4.1301,4.1297,4.1293,4.1288,4.1443,4.1453,4.1463,4.1614,0,0,4.1494,4.1499,0,0,0,0,0,0,0,0,4.0983,4.1003,4.1176,4.1179,4.1182,4.1291,4.1272,4.1428,4.1302,4.1256,4.1291,4.1286,4.1399,4.1413,4.1451,4.1621,4.1628,4.1495,4.1502,4.1506,4.1509,0,0,0,0,0,0,0,4.0972,4.0996,4.1235,4.1179,4.1182,4.1173,4.1189,4.1302,4.135,4.1259,4.1257,4.1276,4.1399,4.1441,4.1455,4.163,4.1495,4.1504,4.1511,4.1515,4.1931,4.1936,0,0,0,0,0,0,4.096,4.0988,4.123,4.124,4.107,4.1182,4.1201,4.126,4.1348,4.1358,4.128,4.1274,4.1426,4.1443,4.146,4.1643,4.1506,4.1516,4.1522,4.1926,4.1932,4.1938,0,0,0,0,0,0,4.0953,4.0982,4.1224,4.1114,4.1144,4.1193,4.126,4.1266,4.1308,4.1364,4.1372,4.1314,4.1423,4.1446,4.1576,4.1648,4.152,4.153,4.1921,4.1928,4.1935,4.2009,0,0,0,0,0,0,4.0944,4.098,4.1038,4.1115,4.115,4.1339,4.1264,4.1272,4.1326,4.132,4.1398,4.1407,4.1422,4.1561,4.1586,4.166,4.1538,4.1914,4.1924,4.1933,4.2001,4.2018,4.2033,0,0,0,0,0,4.0932,4.1052,4.1042,4.1071,4.1224,4.1343,4.1362,4.1378,4.1332,4.1391,4.1427,4.1405,4.1636,4.1575,4.1603,4.168,4.191,4.1921,4.1932,4.1993,4.2015,4.2033,0,0,0,0,0,0,4.0981,4.1062,4.1052,4.12,4.1265,4.1337,4.1412,4.14,4.1478,4.1469,4.1483,4.1501,4.1635,4.167,4.1601,4.1831,4.1766,4.1783,4.1803,4.1824,4.184,4.1829,4.1546,0,0,0,0,0,4.101,4.1101,4.1166,4.129,4.1324,4.1362,4.1415,4.1421,4.1488,4.1515,4.1561,4.1626,4.1713,4.177,4.1854,4.2005,4.2022,4.2073,4.2089,4.2102,4.2117,4.22,4.2224,4.1974,4.1974,4.1973,0,0,4.1068,4.1124,4.118,4.1302,4.1353,4.1446,4.1386,4.1486,4.1555,4.153,4.1657,4.1692,4.1766,4.1908,4.1973,4.1942,4.219,4.2116,4.2126,4.2134,4.2214,4.2238,4.2259,4.1981,4.198,4.1979,0,0,4.1224,4.1275,4.1385,4.1438,4.1517,4.1542,4.1568,4.1642,4.1666,4.1793,4.1776,4.1857,4.2007,4.2061,4.2108,4.2284,4.2266,4.231,4.2396,4.2477,4.2497,4.2514,4.2578,4.26,4.2325,4.2325,4.2325,0,4.1287,4.1428,4.1443,4.1546,4.16,4.1583,4.1694,4.1744,4.1845,4.1882,4.1846,4.2035,4.2083,4.2237,4.2281,4.2319,4.2349,4.2302,4.2493,4.2511,4.2527,4.2588,4.2612,4.233,4.2329,4.2329,4.2328,0,4.1502,4.16,4.1679,4.178,4.1842,4.1948,4.1979,4.204,4.2041,4.2069,4.2199,4.2256,4.2351,4.2388,4.2389,4.2543,4.2522,4.2489,4.2425,4.2556,4.2613,4.2636,4.2337,4.2335,4.2334,4.2332,0,0,4.1693,4.1801,4.183,4.1876,4.1961,4.2037,4.2142,4.2236,4.2289,4.2359,4.2448,4.2575,4.2546,4.2599,4.2606,4.2677,4.2814,4.2636,4.2637,4.2667,4.2987,4.3012,4.3039,4.2802,4.2807,4.281,4.2982,0,4.1857,4.2045,4.2062,4.223,4.2321,4.2305,4.2397,4.2459,4.2488,4.2568,4.26,4.2691,4.2645,4.2677,4.2746,4.2782,4.2878,4.277,4.2884,4.2888,4.2868,4.3069,4.3095,4.3255,4.3004,4.3008,4.3011,0,4.2074,4.2152,4.233,4.2404,4.2443,4.2525,4.2614,4.2691,4.276,4.2776,4.2836,4.2833,4.2941,4.2871,4.3019,4.2946,4.2993,4.3018,4.3024,4.3036,4.2958,4.3087,4.3306,4.333,4.3046,4.3043,4.304,0,4.2196,4.2347,4.2473,4.2512,4.2601,4.266,4.2699,4.2764,4.282,4.2897,4.2933,4.302,4.3068,4.3135,4.3156,4.3103,4.3303,4.3235,4.3319,4.3319,4.3363,4.336,4.3593,4.3392,4.3392,4.3391,4.3391,0,4.2379,4.2488,4.2529,4.2607,4.2729,4.2747,4.2867,4.2903,4.2961,4.3045,4.3036,4.3114,4.3136,4.3218,4.3234,4.3355,4.3376,4.3392,4.3395,4.3394,4.3392,4.3426,4.3415,4.3398,4.3396,4.3395,4.3394,0,4.2537,4.2569,4.2706,4.2779,4.28,4.2887,4.2949,4.3024,4.3051,4.3157,4.3183,4.3226,4.3323,4.335,4.3464,4.3475,4.3617,4.3609,4.3594,4.3595,4.3678,4.367,4.3941,4.3978,4.3752,4.3754,4.3756,0,4.2651,4.2736,4.2819,4.2875,4.2918,4.3008,4.3066,4.3086,4.3146,4.3232,4.3296,4.3391,4.3468,4.3622,4.3663,4.3751,4.3746,4.3835,4.3759,4.3755,4.3748,4.3744,4.3753,4.385,4.3852,4.3854,4.3856,0,4.2852,4.2864,4.2948,4.3038,4.3108,4.3179,4.3248,4.3294,4.3323,4.3391,4.349,4.3551,4.3669,4.3763,4.3852,4.3891,4.3879,4.3879,4.3903,4.3903,4.3892,4.39,4.3635,4.3873,4.3871,4.387,4.3869,4.3868,4.2993,4.3067,4.3138,4.3232,4.3286,4.3351,4.3425,4.3462,4.3546,4.3645,4.3651,4.3759,4.3826,4.3944,4.3988,4.4072,4.4045,4.408,4.4089,4.4098,4.4105,4.3878,4.4088,4.4087,4.4087,4.4086,4.4086,0,4.3193,4.3238,4.3325,4.3422,4.3496,4.3479,4.3554,4.3617,4.3713,4.3777,4.3854,4.3968,4.406,4.4108,4.4199,4.4257,4.4253,4.428,4.4277,4.4286,4.4123,4.4094,4.4282,4.4282,4.4281,4.4281,4.4281,4.4281,4.3307,4.3433,4.3453,4.3605,4.3649,4.3756,4.3801,4.386,4.3912,4.404,4.4117,4.4148,4.4206,4.4302,4.4385,4.4397,4.4431,4.4461,4.447,4.4317,4.4297,4.4278,4.4251,4.4468,4.4468,4.4625,4.4627,4.4628]}]]